CAS-2T & KS-1Q

Last updated on Sun Jun 21 2026 00:03:20 GMT+0000 (Coordinated Universal Time)

1 41847U 16066G 26171.21882669 .00001296 00000+0 18865-3 0 9990 2 41847 98.3821 246.9206 0342870 120.3110 243.2471 14.44702954505236
UTC large
Height (km)
Speed (km/s)
/
Latitude / Longitude
Inclination (degrees)
Orbital Period (minutes)
Azimuth
Elevation
Range (km)
Doppler Factor

Next 0 passes for location: London (51.5072 / 0.1276)

No passes found over London.
CAS-2T & KS-1Q